Hourly Data Report for May 29, 2015

All times are specified in Local Standard Time (LST). Add 1 hour to adjust for Daylight Saving Time where and when it is observed.

CHARLOTTETOWN A
PRINCE EDWARD ISLAND

46°17'21.000" N
63°07'09.000" W
48.50 m
8300301
71706
YYG

Download Data

Hourly Data (May 2015)
Hourly Data Report for May 29, 2015
Temp Definition
°C
Dew Point Temp Definition
°C
Rel Hum Definition
%
Wind Dir Definition
10's deg

Wind Spd Definition
km/h
Visibility Definition
km
Stn Press Definition
kPa
Hmdx Definition


Wind Chill Definition


Weather Definition


TIME
00:00 Legend Double Dagger 15.2 13.9 92 25 16 16.1 101.40     Rain Showers
01:00 Legend Double Dagger 14.8 13.9 94 24 13 16.1 101.40     Rain Showers
02:00 Legend Double Dagger 13.5 13.0 97 36 11 4.8 101.49     Drizzle,Fog
03:00 Legend Double Dagger 13.8 13.3 97 3 11 16.1 101.53     LegendNANA
04:00 Legend Double Dagger 13.9 13.0 94 1 9 24.1 101.61     LegendNANA
05:00 Legend Double Dagger 13.4 12.0 91 35 10 24.1 101.70     Mostly Cloudy
06:00 Legend Double Dagger 10.6 8.5 87 1 16 24.1 101.76     LegendNANA
07:00 Legend Double Dagger 11.2 8.4 83 2 20 24.1 101.87     LegendNANA
08:00 Legend Double Dagger 12.8 8.1 73 3 24 24.1 101.97     Mainly Clear
09:00 Legend Double Dagger 14.0 8.2 68 3 22 24.1 102.03     LegendNANA
10:00 Legend Double Dagger 16.0 8.6 61 3 27 24.1 102.07     LegendNANA
11:00 Legend Double Dagger 16.7 8.5 58 3 21 24.1 102.07     Mainly Clear
12:00 Legend Double Dagger 16.3 7.6 56 2 26 24.1 102.12     LegendNANA
13:00 Legend Double Dagger 16.5 6.7 52 4 22 24.1 102.08     LegendNANA
14:00 Legend Double Dagger 16.4 7.7 56 4 26 24.1 102.11     Mainly Clear
15:00 Legend Double Dagger 16.2 8.3 59 2 21 24.1 102.08     LegendNANA
16:00 Legend Double Dagger 16.3 6.5 52 2 21 24.1 102.08     LegendNANA
17:00 Legend Double Dagger 15.7 6.2 53 3 20 24.1 102.04     Mainly Clear
18:00 Legend Double Dagger 15.2 3.7 46 4 19 24.1 102.01     LegendNANA
19:00 Legend Double Dagger 14.0 4.1 51 5 13 24.1 102.02     LegendNANA
20:00 Legend Double Dagger 11.2 3.8 60 4 12 24.1 101.99     Mostly Cloudy
21:00 Legend Double Dagger 11.3 3.4 58 9 5 24.1 101.99     LegendNANA
22:00 Legend Double Dagger 11.3 3.6 59 13 9 24.1 101.94     LegendNANA
23:00 Legend Double Dagger 11.1 2.7 56 12 11 24.1 101.87     Mostly Cloudy

Notes on Data Quality.

Legend

  • E = Estimated
  • M = Missing
  • NA = Not Available
  • ‡ = Partner data that is not subject to review by the National Climate Archives
Date modified: